Date String (YYYY-MM-DD hh:mm:ss) UTC,Instrument flags,absolute air pressure of the measurement (hPa),sample flow rate (lpm),inlet stack bypass flow (lpm),air temperature of the measurement (°C),ambient temperature measured by the external sensor (°C),aerosol sample conditioner tube jacket temperature (°C),OPC LED temperature (°C),internal box temperature (°C),relative humidity of the measurement (%),span deviation,mass concentration of particles derived from Lorenz-Mie calculation of OPC scattering (μg/m³),mass concentration of particles derived from Lorenz-Mie calculation of OPC scattering (μg/m³),mass concentration of particles derived from Lorenz-Mie calculation of OPC scattering (μg/m³)
DateTimeUTC,F1_M11,P_M11,Q1_M11,Q2_M11,T1_M11,T2_M11,T3_M11,T4_M11,T5_M11,U1_M11,ZSPAN_M11,X0_M11,X2_M11,X1_M11
2024-05-10 08:00:00,SystemResetWarning,0836.4,5.02,000.00,025.2,022.4,000.0,034.4,026.1,022.6,0000.0,0003.79,0002.23,0001.65
2024-05-10 08:01:00,SystemResetWarning,0836.4,5.00,000.00,025.2,022.8,000.0,034.2,026.3,022.5,0000.0,0003.76,0002.23,0001.65
2024-05-10 08:02:00,SystemResetWarning,0836.5,5.00,000.00,025.2,023.2,000.0,034.1,026.6,022.4,0000.0,0003.65,0002.20,0001.65
2024-05-10 08:03:00,SystemResetWarning,0836.5,5.00,000.00,025.2,023.5,000.0,034.0,026.7,022.3,0000.0,0003.69,0002.20,0001.65
2024-05-10 08:04:00,SystemResetWarning,0836.5,4.99,000.00,025.2,023.7,000.0,033.9,026.8,022.4,0000.0,0003.79,0002.23,0001.66
2024-05-10 08:05:00,SystemResetWarning,0836.5,4.99,000.00,025.2,024.0,000.0,033.8,026.8,022.5,0000.0,0003.80,0002.26,0001.68
2024-05-10 08:06:00,SystemResetWarning,0836.6,5.00,000.00,025.2,024.2,000.0,033.8,026.9,022.7,0000.0,0003.60,0002.23,0001.70
2024-05-10 08:07:00,SystemResetWarning,0836.6,5.01,000.00,025.3,024.3,000.0,033.8,027.0,022.9,0000.0,0003.42,0002.16,0001.70
2024-05-10 08:08:00,SystemResetWarning,0836.6,5.01,000.00,025.3,024.4,000.0,033.8,027.0,022.8,0000.0,0003.36,0002.15,0001.71
2024-05-10 08:09:00,SystemResetWarning,0836.6,5.00,000.00,025.3,024.6,000.0,033.8,027.1,022.6,0000.0,0003.40,0002.16,0001.72
2024-05-10 08:10:00,SystemResetWarning,0836.6,5.00,000.00,025.4,024.7,000.0,033.7,027.1,022.7,0000.0,0003.43,0002.19,0001.73
2024-05-10 08:11:00,SystemResetWarning,0836.6,5.00,000.00,025.4,024.7,000.0,033.7,027.2,023.2,0000.0,0003.31,0002.20,0001.75
2024-05-10 08:12:00,SystemResetWarning,0836.6,5.00,000.00,025.4,024.8,000.0,033.8,027.2,023.5,0000.0,0003.41,0002.22,0001.76
2024-05-10 08:13:00,SystemResetWarning,0836.6,5.00,000.00,025.5,024.9,000.0,033.8,027.3,023.3,0000.0,0003.51,0002.26,0001.79
2024-05-10 08:14:00,SystemResetWarning,0836.6,5.00,000.00,025.5,024.9,000.0,033.8,027.3,023.1,0000.0,0003.36,0002.22,0001.81
2024-05-10 08:15:00,SystemResetWarning,0836.6,5.00,000.00,025.5,025.0,000.0,033.8,027.3,022.9,0000.0,0003.34,0002.25,0001.83
2024-05-10 08:16:00,SystemResetWarning,0836.6,5.00,000.00,025.5,025.0,000.0,033.8,027.3,023.3,0000.0,0003.47,0002.31,0001.85
2024-05-10 08:17:00,SystemResetWarning,0836.6,5.00,000.00,025.6,025.0,000.0,033.8,027.4,023.4,0000.0,0003.51,0002.33,0001.86
2024-05-10 08:18:00,SystemResetWarning,0836.6,5.00,000.00,025.6,025.1,000.0,033.8,027.4,022.7,0000.0,0003.61,0002.35,0001.87
2024-05-10 08:19:00,SystemResetWarning,0836.6,5.00,000.00,025.6,025.1,000.0,033.9,027.4,022.4,0000.0,0003.80,0002.38,0001.89
2024-05-10 08:20:00,SystemResetWarning,0836.6,5.00,000.00,025.6,025.1,000.0,033.9,027.4,022.4,0000.0,0003.82,0002.38,0001.89
2024-05-10 08:21:00,SystemResetWarning,0836.6,5.00,000.00,025.6,025.1,000.0,033.9,027.4,022.2,0000.0,0003.96,0002.41,0001.91
2024-05-10 08:22:00,SystemResetWarning,0836.6,4.99,000.00,025.7,025.1,000.0,033.9,027.4,022.1,0000.0,0004.03,0002.38,0001.92
2024-05-10 08:23:00,SystemResetWarning,0836.6,5.00,000.00,025.7,025.1,000.0,033.9,027.4,022.1,0000.0,0003.91,0002.37,0001.93
2024-05-10 08:24:00,SystemResetWarning,0836.6,5.00,000.00,025.7,025.2,000.0,033.9,027.4,022.0,0000.0,0004.00,0002.38,0001.92
2024-05-10 08:25:00,SystemResetWarning,0836.6,5.00,000.00,025.7,025.2,000.0,033.9,027.5,022.1,0000.0,0004.12,0002.43,0001.94
2024-05-10 08:26:00,SystemResetWarning,0836.6,5.00,000.00,025.7,025.2,000.0,034.0,027.5,022.0,0000.0,0004.07,0002.41,0001.95
2024-05-10 08:27:00,SystemResetWarning,0836.6,5.00,000.00,025.7,025.2,000.0,034.0,027.5,022.0,0000.0,0003.95,0002.38,0001.96
2024-05-10 08:28:00,SystemResetWarning,0836.6,5.01,000.00,025.8,025.2,000.0,034.0,027.6,022.1,0000.0,0004.05,0002.43,0001.98
2024-05-10 08:29:00,SystemResetWarning,0836.6,5.00,000.00,025.8,025.2,000.0,034.0,027.6,022.1,0000.0,0004.02,0002.46,0002.00
2024-05-10 08:30:00,SystemResetWarning,0836.6,5.00,000.00,025.8,025.2,000.0,034.0,027.6,022.1,0000.0,0003.96,0002.48,0002.01
2024-05-10 08:31:00,SystemResetWarning,0836.6,5.00,000.00,025.8,025.2,000.0,034.0,027.6,022.1,0000.0,0003.87,0002.48,0002.04
2024-05-10 08:32:00,SystemResetWarning,0836.6,5.00,000.00,025.8,025.2,000.0,034.1,027.6,022.0,0000.0,0003.60,0002.43,0002.05
2024-05-10 08:33:00,SystemResetWarning,0836.6,5.01,000.00,025.8,025.2,000.0,034.1,027.6,021.8,0000.0,0003.41,0002.44,0002.06
2024-05-10 08:34:00,SystemResetWarning,0836.6,5.00,000.00,025.8,025.2,000.0,034.1,027.6,021.8,0000.0,0003.48,0002.48,0002.07
2024-05-10 08:35:00,SystemResetWarning,0836.6,5.00,000.00,025.8,025.2,000.0,034.1,027.6,021.9,0000.0,0003.29,0002.46,0002.09
2024-05-10 08:36:00,SystemResetWarning,0836.6,4.99,000.00,025.8,025.3,000.0,034.1,027.6,021.8,0000.0,0003.39,0002.47,0002.10
2024-05-10 08:37:00,SystemResetWarning,0836.7,5.00,000.00,025.8,025.3,000.0,034.1,027.6,021.7,0000.0,0003.49,0002.49,0002.11
2024-05-10 08:38:00,SystemResetWarning,0836.6,5.00,000.00,025.9,025.3,000.0,034.1,027.6,021.7,0000.0,0003.54,0002.52,0002.15
2024-05-10 08:39:00,SystemResetWarning,0836.6,5.00,000.00,025.9,025.3,000.0,034.1,027.6,021.6,0000.0,0003.52,0002.52,0002.17
2024-05-10 08:40:00,SystemResetWarning,0836.6,5.00,000.00,025.9,025.3,000.0,034.1,027.6,021.9,0000.0,0003.48,0002.51,0002.18
2024-05-10 08:41:00,SystemResetWarning,0836.6,5.00,000.00,025.9,025.3,000.0,034.1,027.6,022.1,0000.0,0003.39,0002.51,0002.19
2024-05-10 08:42:00,SystemResetWarning,0836.6,5.00,000.00,025.9,025.3,000.0,034.1,027.7,022.2,0000.0,0003.62,0002.58,0002.21
2024-05-10 08:43:00,SystemResetWarning,0836.6,5.00,000.00,025.9,025.3,000.0,034.2,027.7,022.2,0000.0,0003.77,0002.65,0002.22
2024-05-10 08:44:00,SystemResetWarning,0836.6,5.00,000.00,025.9,025.3,000.0,034.2,027.6,022.3,0000.0,0003.83,0002.68,0002.24
2024-05-10 08:45:00,SystemResetWarning,0836.7,4.99,000.00,025.9,025.3,000.0,034.2,027.6,022.4,0000.0,0003.83,0002.69,0002.26
2024-05-10 08:46:00,SystemResetWarning,0836.6,5.00,000.00,025.9,025.3,000.0,034.2,027.6,022.3,0000.0,0003.93,0002.71,0002.28
2024-05-10 08:47:00,SystemResetWarning,0836.6,5.02,000.00,025.9,025.3,000.0,034.2,027.6,022.2,0000.0,0003.93,0002.73,0002.29
2024-05-10 08:48:00,SystemResetWarning,0836.6,5.00,000.00,025.9,025.3,000.0,034.2,027.6,022.0,0000.0,0003.84,0002.74,0002.31
2024-05-10 08:49:00,SystemResetWarning,0836.6,5.00,000.00,025.9,025.3,000.0,034.2,027.6,021.8,0000.0,0003.80,0002.73,0002.31
2024-05-10 08:50:00,SystemResetWarning,0836.6,4.99,000.00,025.9,025.3,000.0,034.2,027.6,021.8,0000.0,0003.81,0002.72,0002.31
2024-05-10 08:51:00,SystemResetWarning,0836.6,4.99,000.00,025.9,025.3,000.0,034.2,027.6,021.9,0000.0,0003.87,0002.75,0002.32
2024-05-10 08:52:00,SystemResetWarning,0836.6,5.01,000.00,025.9,025.3,000.0,034.2,027.6,022.2,0000.0,0003.92,0002.76,0002.32
2024-05-10 08:53:00,SystemResetWarning,0836.6,5.01,000.00,025.9,025.3,000.0,034.2,027.6,022.2,0000.0,0004.71,0002.73,0002.33
2024-05-10 08:54:00,SystemResetWarning,0836.6,4.99,000.00,025.9,025.3,000.0,034.2,027.7,022.1,0000.0,0005.10,0002.70,0002.32
2024-05-10 08:55:00,SystemResetWarning,0836.6,4.99,000.00,025.9,025.3,000.0,034.2,027.7,021.7,0000.0,0005.01,0002.67,0002.31
2024-05-10 08:56:00,SystemResetWarning,0836.6,4.99,000.00,025.9,025.3,000.0,034.2,027.7,021.5,0000.0,0004.99,0002.65,0002.30
2024-05-10 08:57:00,SystemResetWarning,0836.6,5.01,000.00,025.9,025.3,000.0,034.2,027.7,021.4,0000.0,0005.04,0002.65,0002.29
2024-05-10 08:58:00,SystemResetWarning,0836.6,5.01,000.00,026.0,025.3,000.0,034.2,027.7,021.4,0000.0,0004.91,0002.62,0002.29
2024-05-10 08:59:00,SystemResetWarning,0836.6,5.00,000.00,026.0,025.4,000.0,034.2,027.7,021.3,0000.0,0004.90,0002.60,0002.27
